DateTimeUTC,F1_A11,F1_S11,BsB_S11,BsG_S11,BsR_S11,BbsB_S11,BbsG_S11,BbsR_S11,BaB_A11,BaG_A11,BaR_A11,Tu_S11,T_S11,Uu_S11,U_S11,P_S11,T1_A11
2021-08-04T04:00:00Z,00000200,20000000,,,,,,,-000.35,-000.69,-000.43,17.8,24.8,04.3,02.8,0669.7,30.9
2021-08-04T04:01:00Z,00000200,20000000,,,,,,,-001.09,-001.05,-001.21,17.8,24.9,04.0,02.6,0669.7,30.9
2021-08-04T04:02:00Z,00000200,20000000,,,,,,,-001.11,-000.73,-000.77,17.8,24.9,03.7,02.4,0669.7,30.9
2021-08-04T04:03:00Z,00000200,60000000,,,,,,,-000.09,-000.32,-000.37,17.8,24.9,03.7,02.4,0669.7,30.9
2021-08-04T04:04:00Z,00000200,40000000,0000.57,-000.20,0000.24,0000.01,0000.07,-000.01,-000.20,-000.30,-000.40,18.2,24.8,02.4,01.6,0670.6,30.9
2021-08-04T04:05:00Z,00000200,00000000,0000.24,-000.03,0000.15,-000.15,-000.24,-000.31,0000.03,0000.07,0000.26,18.2,24.7,02.3,01.5,0670.6,30.9
2021-08-04T04:06:00Z,00000200,00000000,0000.48,-000.19,0000.13,-000.07,0000.07,-000.36,0000.13,0000.33,0000.54,18.2,24.7,02.4,01.6,0670.6,31.0
2021-08-04T04:07:00Z,00000200,00000000,0000.18,0000.07,0000.12,0000.27,-000.04,-000.07,0000.68,0000.58,0000.62,18.2,24.7,02.6,01.7,0670.6,30.9
2021-08-04T04:08:00Z,00000200,00000000,0000.62,0000.94,0000.89,0000.35,-000.05,0000.21,0004.93,0005.14,0004.56,18.1,24.6,05.0,03.4,0670.6,30.9
2021-08-04T04:09:00Z,00000200,00000000,0000.22,0000.54,0000.40,0000.90,-000.19,-000.10,-001.78,-001.84,-001.93,18.1,24.6,04.2,02.8,0670.6,30.9
2021-08-04T04:10:00Z,00000200,00000000,-000.30,0000.10,-000.03,0000.50,-000.28,0000.18,-000.44,-000.36,-000.29,18.0,24.6,03.4,02.3,0670.6,30.9
2021-08-04T04:11:00Z,00000200,00000000,0001.01,0000.77,0000.33,0000.01,0000.10,0000.10,0000.12,-000.34,0000.25,18.0,24.6,03.3,02.2,0670.6,30.9
2021-08-04T04:12:00Z,00000200,00000000,0002.53,0001.77,0001.66,0000.63,0000.42,0000.67,0000.87,0000.73,-000.15,17.9,24.5,03.3,02.2,0670.6,30.9
2021-08-04T04:13:00Z,00000200,00000000,-000.33,-000.35,0000.20,-000.00,-000.19,-000.25,-000.63,-000.17,0000.17,17.9,24.5,03.2,02.1,0670.6,30.9
2021-08-04T04:14:00Z,00000200,00000000,0000.15,-000.18,0000.24,-000.02,-000.10,0000.07,0000.39,0000.22,-000.06,17.9,24.5,03.2,02.1,0670.6,30.9
2021-08-04T04:15:00Z,00000200,00000000,-000.53,0000.01,0000.09,0000.03,0000.08,0000.14,0000.43,0000.27,0000.41,17.9,24.5,03.1,02.1,0670.6,30.9
2021-08-04T04:16:00Z,00000200,00000000,0000.28,0000.11,-000.02,0000.20,0000.07,-000.21,0000.03,0000.06,0000.03,17.9,24.5,03.2,02.1,0670.6,30.9
2021-08-04T04:17:00Z,00000200,00000000,-000.73,-000.23,0000.14,-000.01,-000.00,-000.43,-000.10,0000.01,-000.15,18.0,24.5,03.1,02.1,0670.6,30.9
2021-08-04T04:18:00Z,00000200,00000000,-000.32,0000.06,0000.20,-000.17,-000.13,0000.07,-000.30,-000.07,-000.26,18.1,24.6,03.1,02.1,0670.6,30.9
2021-08-04T04:19:00Z,00000200,00000000,0000.38,0000.39,0000.55,0000.78,0000.37,0000.30,0009.39,0010.06,0010.36,18.1,24.6,03.9,02.6,0670.6,30.9
2021-08-04T04:20:00Z,00000200,00000000,0000.58,0000.12,0000.23,-000.26,-000.19,0000.29,-005.25,-006.09,-006.07,18.1,24.6,06.4,04.3,0670.6,30.9
2021-08-04T04:21:00Z,00000200,00000000,0000.35,0000.01,-000.15,-000.69,-000.13,-000.04,-002.24,-002.18,-002.26,18.2,24.6,04.0,02.7,0670.6,30.9
2021-08-04T04:22:00Z,00000200,00000000,-000.07,0000.10,0000.17,0000.21,-000.17,0000.02,-000.58,-000.77,-000.78,18.2,24.6,03.3,02.2,0670.6,30.9
2021-08-04T04:23:00Z,00000200,00000000,-000.25,-000.04,0000.32,-000.54,-000.26,0000.16,0000.09,0000.09,-000.02,18.1,24.6,03.1,02.1,0670.6,30.9
2021-08-04T04:24:00Z,00000200,00000000,0000.87,-000.14,-000.02,0000.91,-000.07,-000.56,-000.69,-001.18,-000.92,18.0,24.5,02.9,01.9,0670.6,30.9
2021-08-04T04:25:00Z,00000200,00000000,-000.71,-000.13,0000.05,-000.09,-000.01,-000.23,-000.96,-000.44,-000.66,18.0,24.5,02.5,01.7,0670.6,30.9
2021-08-04T04:26:00Z,00000200,00000000,-000.11,-000.06,-000.05,-000.00,-000.20,-000.11,0000.00,-000.29,-000.42,18.0,24.5,02.2,01.5,0670.6,30.9
2021-08-04T04:27:00Z,00000200,00000000,-000.17,-000.33,-000.05,-000.14,-000.10,-000.11,0000.13,0000.09,0000.38,17.9,24.5,02.3,01.5,0670.5,30.9
2021-08-04T04:28:00Z,00000200,00000000,0000.08,0000.01,-000.15,0000.28,0000.23,-000.19,0000.19,0000.30,0000.37,17.9,24.4,02.4,01.6,0670.6,30.9
2021-08-04T04:29:00Z,00000200,00000000,0000.34,-000.12,-000.01,0000.55,0000.12,-000.13,0000.49,0000.69,0000.67,17.9,24.4,02.5,01.7,0670.5,30.9
2021-08-04T04:30:00Z,00000200,00000000,0000.02,0000.28,0000.18,0000.91,0000.05,-000.09,0000.57,0000.39,0000.52,17.9,24.4,02.7,01.8,0670.5,30.9
2021-08-04T04:31:00Z,00000200,00000000,0000.36,0000.23,0000.31,-000.14,-000.07,0000.14,0001.08,0001.13,0001.02,17.9,24.4,02.9,01.9,0670.5,30.9
2021-08-04T04:32:00Z,00000200,00000000,0002.49,0001.32,0001.15,0000.69,-000.01,-000.17,0001.37,0001.43,0001.06,18.0,24.5,03.3,02.2,0670.5,30.9
2021-08-04T04:33:00Z,00000200,00000000,0000.31,-000.05,0000.18,0000.04,-000.36,-000.25,0000.22,0000.23,0000.05,18.1,24.5,03.5,02.4,0670.5,30.9
2021-08-04T04:34:00Z,00000200,00000000,-000.20,-000.04,-000.24,0000.11,-000.22,-000.24,-000.67,-000.72,-000.26,18.3,24.6,03.4,02.3,0670.5,30.9
2021-08-04T04:35:00Z,00000200,00000000,-000.08,-000.10,-000.11,0000.13,-000.36,0000.09,-000.35,-000.44,-000.63,18.3,24.6,03.1,02.1,0670.4,30.9
2021-08-04T04:36:00Z,00000200,00000000,-000.28,-000.45,-000.40,-000.34,0000.01,-000.29,-000.66,-000.41,-000.67,18.3,24.6,02.9,02.0,0670.4,30.9
2021-08-04T04:37:00Z,00000200,00000000,0000.33,-000.21,0000.25,-000.13,0000.26,0000.18,-001.09,-001.54,-001.45,18.3,24.6,02.5,01.7,0670.5,30.9
2021-08-04T04:38:00Z,00000200,00000000,0000.02,-000.15,0000.23,-000.10,0000.02,0000.18,0001.04,0000.99,0001.05,18.2,24.6,03.0,02.1,0670.5,30.9
2021-08-04T04:39:00Z,00000200,00000000,0000.23,-000.12,0000.27,0000.15,-000.02,-000.23,-000.43,-000.16,-000.15,18.2,24.5,02.5,01.7,0670.5,30.9
2021-08-04T04:40:00Z,00000200,00000000,-000.13,-000.06,0000.31,0000.86,-000.26,-000.16,-000.03,-000.31,-000.37,18.1,24.5,02.3,01.5,0670.4,30.9
2021-08-04T04:41:00Z,00000200,00000000,0000.85,-000.14,0000.09,0000.07,0000.04,-000.26,0000.02,0000.46,0000.41,18.1,24.5,02.5,01.7,0670.4,30.9
2021-08-04T04:42:00Z,00000200,00000000,-000.28,0000.08,-000.09,0000.68,-000.25,-000.07,-000.72,-001.20,-000.57,18.0,24.5,02.2,01.5,0670.4,30.9
2021-08-04T04:43:00Z,00000200,01000000,-000.22,-000.01,0000.05,0000.10,0000.04,-000.01,-001.08,-000.67,-000.86,18.0,24.4,01.9,01.3,0670.4,30.9
2021-08-04T04:44:00Z,00000200,01000000,-000.69,-000.27,0000.12,-000.07,0000.21,-000.30,0000.05,-000.47,-000.70,17.9,24.4,01.6,01.1,0670.5,30.9
2021-08-04T04:45:00Z,00000200,01000000,-000.22,0000.25,0000.23,0000.47,-000.10,-000.37,0000.47,0000.42,0000.66,17.9,24.4,01.4,01.0,0670.4,30.9
2021-08-04T04:46:00Z,00000200,01000000,0000.46,0000.26,0000.26,0000.40,-000.27,-000.03,0000.37,0000.76,0000.10,17.9,24.4,01.5,01.0,0670.5,30.9
2021-08-04T04:47:00Z,00000200,01000000,0000.46,0000.11,0000.29,0000.25,0000.13,0000.08,0003.41,0004.40,0005.03,18.0,24.5,02.8,01.9,0670.4,30.9
2021-08-04T04:48:00Z,00000200,00000000,0000.58,0000.65,0000.61,-000.36,-000.07,0000.22,0002.95,0002.53,0002.33,18.2,24.5,05.5,03.7,0670.5,30.9
2021-08-04T04:49:00Z,00000200,00000000,-000.08,-000.18,0000.21,0000.70,-000.06,-000.16,-004.85,-005.02,-005.28,18.3,24.6,03.6,02.4,0670.5,30.9
2021-08-04T04:50:00Z,00000200,00000000,-000.03,0000.13,-000.08,0000.61,-000.17,-000.01,-000.88,-000.98,-000.92,18.3,24.6,02.6,01.8,0670.4,30.9
2021-08-04T04:51:00Z,00000200,00000000,0000.45,-000.23,0000.08,0000.04,-000.18,-000.25,-000.67,-001.30,-001.09,18.3,24.7,02.1,01.4,0670.5,31.0
2021-08-04T04:52:00Z,00000200,01000000,-000.18,0000.19,0000.01,-000.08,-000.12,-000.10,-000.91,-000.70,-000.50,18.3,24.6,01.7,01.2,0670.5,30.9
2021-08-04T04:53:00Z,00000200,01000000,-000.07,-000.06,0000.06,-000.18,0000.14,0000.03,-000.51,-000.66,-000.96,18.2,24.6,01.4,00.9,0670.5,30.9
2021-08-04T04:54:00Z,00000200,01000000,0000.05,-000.32,0000.57,0000.16,0000.21,0000.02,0000.00,0000.23,-000.05,18.2,24.6,01.3,00.9,0670.5,30.9
2021-08-04T04:55:00Z,00000200,01000000,-000.45,0000.16,-000.20,-000.12,0000.15,-000.38,0000.02,-000.16,0000.05,18.1,24.6,01.4,00.9,0670.5,30.9
2021-08-04T04:56:00Z,00000200,01000000,-000.23,-000.07,0000.13,0000.28,0000.09,-000.05,-000.50,0000.01,-000.20,18.1,24.5,01.3,00.9,0670.5,30.9
2021-08-04T04:57:00Z,00000200,41000000,,,,,,,0001.74,0001.66,0001.87,18.1,24.6,01.2,00.8,0670.6,30.9
2021-08-04T04:58:00Z,00000200,61000000,,,,,,,-000.73,-000.93,-000.65,17.7,24.6,01.9,01.2,0669.5,30.9
2021-08-04T04:59:00Z,00000200,20000000,,,,,,,0000.04,0000.09,0000.00,17.7,24.7,01.7,01.1,0669.5,30.9
